Location: Writing-on-Stone Provincial Park
(49.0825°N, 111.6163°W)
Time: 05:56:33
(UTC-06:00)

Daily predictions for brighter satellites

Satellite Brightness Start Highest point End
(mag) Time Altitude Azimuth Time Altitude Azimuth Time Altitude Azimuth
CZ-4C R/B 4.0 00:03:09 27° ESE 00:04:02 32° ENE 00:06:58 10° N
Okean 3 Rocket 3.5 00:02:17 30° S 00:04:25 78° E 00:08:53 10° NNE
Geosat 4.3 00:03:28 10° NNE 00:08:29 68° NW 00:13:29 10° SW
Cosmos 1741 Rocket 4.2 00:06:01 14° SSW 00:10:38 72° WNW 00:16:00 10° NNE
Cosmos 841 Rocket 4.4 00:08:31 10° NNW 00:13:31 42° ENE 00:16:49 20° ESE
Cosmos 1627 Rocket 4.4 00:11:57 26° S 00:15:35 76° E 00:21:44 10° NNE
NOSS 3-2 (C) 3.8 00:14:44 26° S 00:17:55 47° ESE 00:24:18 10° NE
Cosmos 1408 Rocket 3.9 00:19:10 35° SSE 00:20:45 54° E 00:25:09 10° NNE
Cosmos 1867 4.4 00:20:45 28° SE 00:22:08 32° ESE 00:26:57 10° NE
Genesis I 3.5 00:22:46 10° NW 00:26:45 63° NE 00:28:27 31° ESE
ALOS 2 2.9 00:26:08 32° SE 00:27:57 56° ENE 00:32:16 10° N
Cosmos 1340 3.3 00:27:27 27° SW 00:29:12 51° WNW 00:32:57 10° N
H-2A R/B 3.8 00:26:07 12° SW 00:29:26 22° W 00:33:25 10° NW
Cosmos 2369 3.6 00:27:04 10° NNW 00:32:45 90° ENE 00:35:39 30° SSE
Meteor 2-5 Rocket 4.0 00:31:05 22° SSW 00:34:57 68° WNW 00:40:41 10° N
Terra 3.8 00:32:28 12° SW 00:35:25 19° W 00:38:52 10° NW
Cosmos 468 Rocket 4.1 00:32:00 10° NNW 00:37:13 63° WSW 00:39:28 33° S
Cosmos 1470 4.3 00:33:55 10° NNW 00:37:14 27° W 00:38:47 21° SW
Lacrosse 4 Rocket 4.4 00:35:26 10° WNW 00:37:55 15° NW 00:40:26 10° N
Meteor 2-1 Rocket 4.5 00:36:49 10° NNW 00:42:40 66° W 00:45:38 30° S
H-2A R/B 2.5 00:40:36 10° NNE 00:44:24 55° ESE 00:45:12 45° SSE
Landsat 5 3.5 00:45:37 41° SE 00:46:54 69° ENE 00:51:00 10° N
Cosmos 1814 Rocket 4.2 00:41:53 10° NNW 00:47:06 60° WSW 00:49:19 33° S
Cosmos 1980 Rocket 3.4 00:43:01 10° NNW 00:48:14 37° NE 00:53:00 12° ESE
Cosmos 1553 Rocket 4.0 00:42:21 10° N 00:48:43 83° W 00:52:07 30° S
ATLAS 3B R/B 4.3 00:42:57 10° W 00:49:59 38° NNW 00:56:45 10° NE
Cosmos 1743 Rocket 3.9 00:48:40 37° SE 00:50:01 52° E 00:54:23 10° NNE
Cosmos 405 Rocket 2.6 00:49:34 51° SSE 00:50:24 73° E 00:54:10 10° NNE
Lacrosse 5 1.9 00:46:27 10° NW 00:51:32 81° NNE 00:55:03 20° ESE
Cosmos 1908 4.4 00:49:46 10° N 00:53:18 33° ENE 00:54:32 26° ESE
Cosmos 2278 3.9 00:48:46 10° NW 00:54:20 57° WSW 00:56:43 33° S
Cosmos 1076 Rocket 3.7 00:57:58 35° SW 00:59:35 63° WNW 01:03:49 10° N
Cosmos 2221 3.8 00:56:01 10° NNW 00:59:51 31° W 01:01:25 24° SW
NOSS 3-2 (A) 3.5 00:55:07 16° SW 01:00:13 88° NW 01:07:06 10° NE
Cosmos 2344 4.0 00:56:17 28° S 01:00:14 48° ESE 01:08:40 10° NE
SL-23 DEB 3.8 01:00:54 10° W 01:04:58 66° NNW 01:08:06 10° ENE
Cosmos 1766 Rocket 3.9 01:03:20 34° SSW 01:05:10 63° WNW 01:09:38 10° N
Cosmos 1500 Rocket 3.9 01:05:21 39° SE 01:06:32 52° E 01:10:46 10° NNE
Cosmos 1328 Rocket 3.5 01:02:25 10° NNW 01:06:50 80° W 01:08:13 43° S
Cosmos 1697 Rocket 2.8 01:01:53 10° NNW 01:07:35 73° ENE 01:10:49 27° SE
Cosmos 540 Rocket 4.3 01:03:18 10° NNW 01:08:18 46° ENE 01:11:34 20° SE
Cosmos 1486 Rocket 3.9 01:07:34 32° SSW 01:10:03 86° WNW 01:15:19 10° NNE
Cosmos 1441 Rocket 4.3 01:09:58 29° ESE 01:10:46 32° E 01:14:17 10° NNE
Cosmos 1763 Rocket 3.6 01:07:58 10° NNW 01:13:15 65° WSW 01:15:18 36° S
Lacrosse 5 rocket 2.2 01:09:46 10° NW 01:13:53 53° NNE 01:18:13 10° ESE
Meteor 2-2 Rocket 4.3 01:08:31 10° N 01:14:17 79° ENE 01:17:07 32° SSE
Cosmos 2082 Rocket 2.4 01:12:58 34° S 01:15:12 56° ESE 01:20:46 10° NE
Cosmos 2315 Rocket 4.2 01:09:39 10° N 01:15:57 64° ENE 01:19:26 27° SSE
S3M 4.4 01:11:24 10° NNW 01:17:24 51° W 01:20:29 27° SSW
Cosmos 2266 Rocket 4.1 01:14:23 31° S 01:17:37 75° E 01:24:02 10° NNE
Cosmos 1833 Rocket 3.1 01:15:42 33° SSE 01:17:45 46° ESE 01:23:07 10° NE
Cosmos 405 4.4 01:15:01 10° N 01:18:19 32° ENE 01:19:28 26° ESE
CZ-4B R/B 2.2 01:18:32 39° SW 01:19:08 43° W 01:22:42 10° NNW
Cosmos 1437 Rocket 3.2 01:15:18 10° N 01:19:09 51° ENE 01:20:17 37° SE
Cosmos 724 4.4 01:19:30 34° S 01:21:51 57° ESE 01:27:37 10° NE
Meteor 2-20 4.4 01:18:54 32° S 01:21:57 83° E 01:28:09 10° NNE
Cosmos 1515 Rocket 3.6 01:18:24 10° NNW 01:22:51 70° W 01:24:15 42° SSW
Cosmos 1689 Rocket 3.2 01:24:48 34° WSW 01:24:55 34° W 01:27:55 10° NNW
Cosmos 1378 4.1 01:24:30 31° WSW 01:25:40 41° WNW 01:29:18 10° N
Cosmos 1656 3.7 01:20:35 10° NNW 01:26:17 69° WSW 01:28:45 34° S
Cosmos 1674 3.1 01:29:21 42° SE 01:30:03 48° E 01:33:42 10° NNE
ISS -3.2 01:32:54 10° WNW 01:36:11 73° NNE 01:38:25 19° E
Cosmos 332 Rocket 4.2 01:34:38 10° NNW 01:39:24 58° ENE 01:42:07 25° SE
Cosmos 2058 4.2 01:38:10 25° SE 01:39:29 31° E 01:43:10 10° NNE
Helios 1A Rocket 3.0 01:35:27 10° N 01:39:31 68° WNW 01:40:49 40° SW
CZ-2C R/B 2.8 01:35:18 10° NNE 01:40:50 64° ESE 01:43:13 33° S
Cosmos 2228 Rocket 4.4 01:37:51 10° NNW 01:41:37 28° W 01:42:57 24° WSW
Timation 2 Rocket 4.4 01:37:56 20° SW 01:42:53 68° WNW 01:49:39 10° NNE
CZ-4C R/B 3.1 01:47:35 10° WSW 01:53:00 50° NW 01:59:11 10° NE
CENTAUR R/B 2.8 01:50:58 31° S 01:53:49 54° ESE 02:00:34 10° NE
SL-16 R/B 3.2 01:48:55 10° NNW 01:54:23 45° NE 01:59:49 10° SE
Cosmos 841 Rocket 4.5 01:50:39 10° NW 01:55:18 33° WSW 01:56:54 27° SW
COS B Rocket 3.8 01:55:05 10° NNE 01:56:43 25° ENE 01:56:43 25° ENE
Cosmos 1805 Rocket 4.1 01:56:29 33° SSE 01:58:06 50° E 02:02:25 10° NNE
Cosmos 1354 Rocket 4.3 01:56:40 28° SW 01:59:27 64° WNW 02:04:44 10° NNE
ASTEX 1 3.8 01:55:39 10° NNE 02:00:33 56° E 02:02:49 30° SSE
Cosmos 2151 2.9 02:01:36 43° S 02:02:59 90° ESE 02:07:15 10° N
Cosmos 1503 Rocket 4.3 02:01:09 27° SW 02:04:00 62° WNW 02:09:16 10° NNE
Cosmos 1633 Rocket 4.1 02:02:20 25° SE 02:04:11 37° E 02:08:17 10° NNE
Cosmos 2322 Rocket 2.8 01:58:59 10° NNW 02:04:33 55° NE 02:09:55 11° SE
ALOS 2 4.4 02:03:31 16° WSW 02:04:38 18° W 02:07:38 10° NW
MOS 1-B Rocket 4.4 02:01:13 27° S 02:05:25 67° WSW 02:11:50 10° NNW
Cosmos 1867 4.2 02:01:23 17° WSW 02:05:30 55° NW 02:10:56 10° NNE
Cosmos 1151 Rocket 3.7 02:03:07 10° NNW 02:07:08 41° W 02:08:17 33° SW
Meteor 1-27 4.4 02:02:00 10° N 02:07:54 78° ENE 02:11:22 26° SSE
USA 32 4.0 02:02:44 10° N 02:08:01 80° W 02:10:26 33° S
Cosmos 1707 Rocket 3.5 02:04:11 10° N 02:08:35 83° E 02:10:16 37° SSE
NOSS 3-2 (C) 4.4 02:02:41 10° WSW 02:08:51 50° NW 02:15:38 10° NE
Cosmos 2242 Rocket 4.1 02:05:54 10° N 02:10:15 53° ENE 02:12:32 26° SE
SL-14 R/B 4.1 02:10:57 30° SE 02:12:13 40° E 02:15:51 10° NNE
Abrixas 2.4 02:14:33 68° SE 02:14:33 68° SE 02:17:27 10° E
Cosmos 1666 Rocket 3.9 02:13:58 33° SSE 02:15:39 56° E 02:19:55 10° NNE
Meteor 1-4 Rocket 4.3 02:12:52 10° N 02:16:14 30° ENE 02:18:46 15° SE
Cosmos 1271 Rocket 4.2 02:15:28 10° N 02:18:53 31° ENE 02:21:21 16° SE
Cosmos 1328 3.8 02:17:52 42° SSW 02:19:07 75° W 02:23:07 10° N
ERS-2 4.2 02:22:05 10° NE 02:24:51 20° E 02:26:34 15° SE
Cosmos 371 Rocket 3.2 02:24:32 10° NNW 02:29:25 78° WSW 02:31:58 28° SSE
Aureole 1 Rocket 4.3 02:27:36 10° NW 02:31:58 36° WSW 02:34:03 27° SSW
Cosmos 1980 Rocket 2.6 02:27:01 10° NW 02:32:21 44° WSW 02:34:43 29° SSW
Cosmos 2360 Rocket 3.6 02:27:45 10° NNW 02:33:02 38° NE 02:38:16 10° ESE
Cosmos 1538 Rocket 3.9 02:28:31 10° NNW 02:33:44 74° WSW 02:36:46 26° S
Lacrosse 5 2.9 02:29:56 10° WNW 02:34:04 25° SW 02:34:10 25° SW
Cosmos 1300 2.9 02:31:42 10° NNW 02:35:28 55° W 02:36:34 39° SSW
Cosmos 923 Rocket 4.4 02:32:10 10° NNW 02:37:25 62° ENE 02:42:31 10° SE
CZ-2C R/B 3.7 02:37:09 28° SSW 02:39:47 47° W 02:45:22 10° NNW
Sich 1 3.0 02:38:20 33° S 02:40:18 88° E 02:44:47 10° N
BREEZE-M DEB (TANK) 3.1 02:38:43 10° W 02:41:25 54° SSW 02:49:05 10° ESE
Cosmos 773 Rocket 4.0 02:39:17 10° NNW 02:44:27 83° ENE 02:48:34 16° SSE
Cosmos 1680 Rocket 4.1 02:40:15 10° NNW 02:45:24 56° ENE 02:50:32 10° SE
Cosmos 1726 2.4 02:44:22 10° NNW 02:47:59 51° W 02:49:04 37° SSW
Meteor 1-11 4.3 02:47:29 26° SSW 02:50:52 76° WNW 02:56:43 10° N
Cosmos 1697 Rocket 4.1 02:46:51 10° NW 02:50:58 21° W 02:52:32 19° WSW
Lacrosse 5 rocket 1.9 02:49:07 10° WNW 02:53:08 39° SW 02:54:44 28° S
USA 161 4.0 02:55:28 10° ESE 02:56:49 14° ENE 02:58:13 10° NNE
Cosmos 2082 Rocket 3.6 02:54:48 11° WSW 02:59:38 31° NW 03:04:41 10° NNE
Cosmos 1833 Rocket 3.8 02:57:22 13° WSW 03:01:49 36° NW 03:07:01 10° NNE
Cosmos 1862 Rocket 3.6 02:57:45 10° N 03:02:16 83° E 03:05:17 20° SSE
Cosmos 1455 2.3 02:58:35 10° N 03:02:24 72° E 03:04:44 22° SSE
Cosmos 1437 3.7 03:01:23 29° WSW 03:02:26 37° WNW 03:05:35 10° N
ATLAS 5 CENTAUR R/B 3.1 03:00:27 19° SSE 03:03:08 31° ESE 03:07:43 10° ENE
BREEZE-M DEB (TANK) 2.4 02:57:24 10° W 03:04:26 88° S 03:07:06 10° E
IRS-P3 4.3 03:02:47 10° NNE 03:08:08 68° ESE 03:11:51 20° S
Cosmos 1745 Rocket 4.2 03:04:50 23° SSW 03:08:58 63° WNW 03:15:16 10° N
Nadezhda 1 Rocket 4.2 03:03:35 10° NNW 03:09:35 55° W 03:13:30 21° SSW
ATLAS CENTAUR R/B 2.7 03:04:58 10° NNW 03:09:40 47° NE 03:14:01 10° ESE
USA 215 4.1 03:04:05 10° ENE 03:10:02 36° SE 03:14:10 18° S
ISS -1.6 03:09:32 10° W 03:10:53 20° W 03:10:53 20° W
Cosmos 1626 2.5 03:12:11 23° S 03:14:21 60° E 03:18:05 10° NNE
Cosmos 2344 4.5 03:06:55 10° WSW 03:14:42 54° NNW 03:24:20 10° NE
Landsat 4 4.3 03:13:30 28° SW 03:14:49 38° W 03:18:21 10° NNW
Cosmos 2058 4.3 03:14:24 18° WSW 03:16:27 27° WNW 03:20:02 10° NNW
SL-23 DEB 3.4 03:14:38 10° WNW 03:17:48 79° NNE 03:21:13 10° ESE
Cosmos 1709 Rocket 4.1 03:15:16 17° S 03:20:14 79° E 03:26:28 10° NNE
CZ-2C R/B 4.3 03:16:17 10° N 03:20:40 24° WNW 03:24:45 11° WSW
SL-16 R/B 3.6 03:16:58 10° SE 03:22:54 47° ENE 03:28:51 10° N
GENESIS II 4.2 03:20:54 10° NW 03:25:02 67° SW 03:29:04 10° SSE
COSMOS 2428 3.7 03:23:48 10° NNW 03:29:21 50° NE 03:34:50 10° SE
ADEOS 4.1 03:24:24 10° NNE 03:29:33 54° E 03:34:08 13° S
PSLV R/B 4.2 03:28:06 10° N 03:32:31 46° WNW 03:35:24 19° SW
Cosmos 2221 Rocket 3.9 03:29:52 10° N 03:34:23 71° E 03:38:55 10° SSE
SL-16 R/B 2.9 03:33:16 10° NW 03:38:22 35° WSW 03:42:15 16° SSW
Cosmos 2112 Rocket 4.0 03:35:50 10° NNW 03:40:58 63° WSW 03:46:06 10° S
Cosmos 1633 Rocket 4.5 03:39:25 15° WSW 03:42:06 26° WNW 03:45:50 10° NNW
Cosmos 968 Rocket 4.2 03:39:50 16° SW 03:43:37 42° WNW 03:48:34 10° NNE
CENTAUR R/B 3.5 03:38:28 10° WSW 03:44:41 47° NNW 03:51:40 10° NE
SL-08 R/B 3.7 03:42:10 16° S 03:45:51 48° W 03:50:39 10° NNW
H-2A R/B 3.9 03:42:28 16° SSW 03:46:05 24° SSE 04:00:40 10° ESE
Cosmos 2322 Rocket 3.2 03:43:35 10° NW 03:48:16 28° WSW 03:51:40 16° SSW
Abrixas 2.4 03:47:21 10° W 03:50:26 71° S 03:53:31 10° ESE
Meteor 1-4 Rocket 4.0 03:48:16 10° NW 03:51:20 23° W 03:53:07 17° SW
Cosmos 2292 Rocket 3.1 03:49:49 18° SSW 03:52:11 74° WNW 03:56:23 10° N
Cosmos 2219 Rocket 3.6 03:48:17 10° NNW 03:53:35 41° NE 03:58:50 10° ESE
Cosmos 1869 4.1 03:50:55 10° NNW 03:54:34 35° W 03:57:11 16° SSW
Cosmos 1271 Rocket 4.1 03:51:51 10° NW 03:54:48 22° W 03:56:33 16° SW
CZ-2D R/B 3.2 03:52:25 10° NNE 03:57:23 40° E 04:02:22 10° SSE
Cosmos 1703 Rocket 3.5 03:53:31 10° NNW 03:57:52 66° W 04:02:09 10° S
ERS-2 3.0 03:55:21 10° N 03:58:48 37° WNW 04:01:26 15° SW
BREEZE-M DEB (TANK) 3.2 03:56:28 17° SW 03:58:59 58° SSE 04:08:39 10° ENE
Cosmos 1346 3.3 04:05:34 16° SSW 04:07:48 54° WNW 04:10:50 10° N
NPP 4.2 04:07:07 10° N 04:12:14 46° WNW 04:17:03 11° SW
Okean 1-7 3.0 04:08:23 10° NNW 04:12:47 74° W 04:17:07 10° S
Cosmos 2360 Rocket 2.6 04:11:49 10° NW 04:17:06 43° WSW 04:22:22 10° S
EO 1 Del DPAF 3.3 04:13:52 10° S 04:17:45 62° WSW 04:21:39 10° NNW
USA 229 DEB 4.2 04:11:39 10° SSW 04:18:24 58° ESE 04:25:15 10° NE
USA 229 4.2 04:11:45 10° SSW 04:18:31 57° ESE 04:25:21 10° NE
Spot 4 Rocket 4.2 04:18:34 10° N 04:23:41 66° WNW 04:28:47 10° SSW
Cosmos 2298 Rocket 4.1 04:19:29 10° SSW 04:24:50 83° ESE 04:30:12 10° NNE
MTI 3.8 04:21:34 10° SSE 04:24:55 86° WSW 04:28:19 10° NNW
Cosmos 2227 Rocket 4.3 04:22:26 10° SSE 04:26:34 21° E 04:30:43 10° NE
In-Cosmos 22 Rocket 4.4 04:21:45 10° S 04:27:04 71° E 04:32:31 10° NNE
USA 161 2.8 04:25:56 13° SW 04:27:11 18° W 04:28:57 10° NW
Nadezhda 3 Rocket 4.2 04:22:43 10° N 04:28:55 75° E 04:35:04 10° SSE
SL-08 ROCKET BODY 4.5 04:23:12 10° S 04:29:16 86° W 04:35:29 10° N
CRYOSAT 2 4.4 04:24:34 10° N 04:29:28 73° W 04:34:18 10° SSW
CZ-2C R/B 4.1 04:29:31 10° SSE 04:34:01 69° ENE 04:38:38 10° N
BREEZE-M DEB (TANK) 3.6 04:26:08 10° W 04:34:38 57° SSW 04:37:54 10° ESE
Cosmos 292 Rocket 3.8 04:30:22 10° NNW 04:35:10 68° WSW 04:39:54 10° SSE
Cosmos 2333 4.2 04:31:06 10° NNW 04:36:44 73° WSW 04:42:24 10° SSE
Cosmos 1455 4.5 04:37:11 10° WNW 04:37:31 10° W 04:37:51 10° W
Cosmos 2154 Rocket 4.4 04:32:41 10° S 04:38:59 71° E 04:45:20 10° NNE
Resurs 1-4 Rocket 2.2 04:34:23 10° NNE 04:39:46 89° ESE 04:45:06 10° SSW
UNK 3.9 04:35:48 10° S 04:40:16 53° W 04:44:46 10° NNW
Cosmos 1674 Rocket 4.1 04:36:49 10° N 04:41:07 64° ENE 04:45:25 10° SSE
Cosmos 1782 3.7 04:38:29 10° N 04:42:27 52° ENE 04:46:21 10° SSE
SWAS 4.4 04:38:09 10° NNW 04:42:28 72° WSW 04:46:45 10° SSE
Cosmos 2219 3.3 04:36:50 10° SSW 04:42:36 89° WNW 04:48:24 10° NNE
ARIANE 5 R/B 2.7 04:39:53 10° N 04:44:56 61° WNW 04:49:53 10° SSW
ATLAS 5 CENTAUR R/B 2.5 04:42:38 10° WSW 04:47:32 54° NW 04:52:55 10° NE
Cosmos 2074 Rocket 4.3 04:41:35 10° SSW 04:47:40 55° WNW 04:53:50 10° N
SL-24 DEB 4.3 04:43:26 10° N 04:48:08 88° E 04:52:45 10° S
ATLAS CENTAUR R/B 2.4 04:44:31 10° NW 04:48:37 30° WSW 04:52:26 10° S
Okean O Rocket 2.3 04:46:38 10° NNE 04:51:01 56° E 04:55:19 10° S
USA 215 3.4 04:46:55 10° NE 04:53:29 85° NNW 05:00:02 10° WSW
